Starlink 6290

operational
NORAD ID: 57328 Int'l Des: 2023-099 Owner: SPXS Country: US Constellation: starlink
LEOCIRCULAR

Starlink 6290について

説明を読み込み中...

リアルタイム位置

3D地球を読み込み中...

次回通過

高度履歴

Altitude vs Time

uPlot chart will show altitude changes over time

軌道要素

1 57328U 23099A 25258.32744611 .00000148 00000-0 26061-4 0 9990
2 57328 43.0037 122.1810 0001235 267.8274 92.2427 15.02534449120642
Epoch: Sep 15, 2025 • Age: 17 hours

現在のステータス

高度 571.5 km
速度 7.58 km/s
衛星直下点 -42.99°S, 23.85°E
打ち上げ日 Jul 16, 2023
運用期間 2.1 years
タイプ internet

技術仕様

分類 Payload
質量 305.00 kg
乾燥質量 290.00 kg
総質量 305.00 kg
長さ 0.20 m
直径 2.80 m
スパン 9.00 m
形状 Box + pan
製造者 SPXS
バスタイプ Starlink
フェーズステータス In Orbit
所有者/国 SPXS/US

大規模コンステレーション

Loading constellations...